EZY39H EGPH-EGGD

Flight info

Callsign EZY39H
Flight time 0h 53m
Altitude 35000
Route GOSAM1C GOSAM P600 FENIK L612 NAVSO DCT ADZOP DCT EGTOC DCT NOKIN N862 KARNO/N0432F320 DCT ALHUP DCT LUCSA/N0388F230 N862 WEVBE WEVBE1B
Aircraft A320/M-VGDW/C

Departure

Time 2026-05-04 17:51
Airport Edinburgh Airport (EGPH)

Arrival

Time 2026-05-04 18:45
Airport Bristol Airport (EGGD)
Time Latitude Longitude Altitude Speed Heading
2026-05-04 17:33 55.94838 -3.35802 108 ft 0 kts 209°
2026-05-04 17:44 55.94850 -3.35791 105 ft 3 kts 208°
2026-05-04 17:44 55.94866 -3.35775 106 ft 3 kts 210°
2026-05-04 17:44 55.94882 -3.35755 107 ft 3 kts 236°
2026-05-04 17:45 55.94889 -3.35725 108 ft 3 kts 278°
2026-05-04 17:45 55.94886 -3.35703 107 ft 1 kts 299°
2026-05-04 17:45 55.94885 -3.35703 107 ft 0 kts 299°
2026-05-04 17:47 55.94886 -3.35705 107 ft 2 kts 299°
2026-05-04 17:47 55.94915 -3.35796 108 ft 11 kts 300°
2026-05-04 17:48 55.94980 -3.35864 108 ft 12 kts
2026-05-04 17:48 55.95050 -3.35797 108 ft 11 kts 28°
2026-05-04 17:48 55.95105 -3.35824 108 ft 8 kts 303°
2026-05-04 17:48 55.95140 -3.35920 109 ft 11 kts 310°
2026-05-04 17:49 55.95217 -3.35990 106 ft 14 kts 356°
2026-05-04 17:49 55.95271 -3.35873 107 ft 11 kts 60°
2026-05-04 17:49 55.95309 -3.35759 107 ft 10 kts 58°
2026-05-04 17:49 55.95346 -3.35651 108 ft 9 kts 58°
2026-05-04 17:50 55.95377 -3.35560 110 ft 13 kts 58°
2026-05-04 17:50 55.95440 -3.35418 109 ft 15 kts 22°
2026-05-04 17:50 55.95533 -3.35490 108 ft 16 kts 325°
2026-05-04 17:50 55.95561 -3.35590 108 ft 9 kts 252°
2026-05-04 17:51 55.95473 -3.35857 108 ft 58 kts 239°
2026-05-04 17:51 55.95139 -3.36835 113 ft 122 kts 238°
2026-05-04 17:51 55.94636 -3.38341 374 ft 150 kts 240°
2026-05-04 17:51 55.94075 -3.39976 1066 ft 157 kts 240°
2026-05-04 17:52 55.93470 -3.41666 1752 ft 167 kts 242°
2026-05-04 17:52 55.92821 -3.43467 2301 ft 182 kts 241°
2026-05-04 17:52 55.92115 -3.45526 2763 ft 207 kts 242°
2026-05-04 17:52 55.91326 -3.47853 3276 ft 232 kts 242°
2026-05-04 17:53 55.90539 -3.50449 3915 ft 248 kts 253°
2026-05-04 17:53 55.90173 -3.53518 4837 ft 253 kts 263°
2026-05-04 17:53 55.89869 -3.56595 5835 ft 257 kts 262°
2026-05-04 17:53 55.89557 -3.59752 6825 ft 260 kts 261°
2026-05-04 17:54 55.89241 -3.62942 7775 ft 263 kts 260°
2026-05-04 17:54 55.88598 -3.66025 8696 ft 271 kts 239°
2026-05-04 17:54 55.87237 -3.68388 9616 ft 281 kts 213°
2026-05-04 17:54 55.85345 -3.69490 10362 ft 298 kts 192°
2026-05-04 17:55 55.83204 -3.69991 10673 ft 323 kts 189°
2026-05-04 17:55 55.80919 -3.70415 11250 ft 335 kts 188°
2026-05-04 17:55 55.78580 -3.70811 12028 ft 341 kts 188°
2026-05-04 17:55 55.76199 -3.71213 12845 ft 345 kts 188°
2026-05-04 17:56 55.73794 -3.71637 13626 ft 350 kts 189°
2026-05-04 17:56 55.71357 -3.72089 14332 ft 354 kts 189°
2026-05-04 17:56 55.68923 -3.72551 15004 ft 358 kts 189°
2026-05-04 17:56 55.66434 -3.73028 15686 ft 362 kts 189°
2026-05-04 17:57 55.63915 -3.73513 16385 ft 366 kts 189°
2026-05-04 17:57 55.61367 -3.74004 17072 ft 370 kts 189°
2026-05-04 17:57 55.58790 -3.74494 17745 ft 375 kts 189°
2026-05-04 17:57 55.56185 -3.74989 18391 ft 379 kts 189°
2026-05-04 17:58 55.53542 -3.75488 18974 ft 383 kts 189°
2026-05-04 17:58 55.50883 -3.75984 19576 ft 385 kts 189°
2026-05-04 17:58 55.48207 -3.76483 20178 ft 388 kts 189°
2026-05-04 17:58 55.45515 -3.76990 20778 ft 390 kts 189°
2026-05-04 17:59 55.42805 -3.77503 21371 ft 393 kts 189°
2026-05-04 17:59 55.40081 -3.78019 21961 ft 395 kts 189°
2026-05-04 17:59 55.34572 -3.79064 23096 ft 400 kts 189°
2026-05-04 18:00 55.31792 -3.79584 23639 ft 403 kts 188°
2026-05-04 18:00 55.28996 -3.80105 24092 ft 405 kts 188°
2026-05-04 18:00 55.26182 -3.80627 24538 ft 408 kts 188°
2026-05-04 18:00 55.23337 -3.80959 24959 ft 413 kts 181°
2026-05-04 18:01 55.20458 -3.80472 25372 ft 419 kts 171°
2026-05-04 18:01 55.17617 -3.79239 25779 ft 423 kts 167°
2026-05-04 18:01 55.14764 -3.77917 26198 ft 425 kts 167°
2026-05-04 18:02 55.09036 -3.75302 27017 ft 431 kts 167°
2026-05-04 18:02 55.06123 -3.73987 27420 ft 433 kts 167°
2026-05-04 18:02 55.03193 -3.72666 27815 ft 436 kts 167°
2026-05-04 18:02 55.00248 -3.71337 28206 ft 439 kts 167°
2026-05-04 18:03 54.97278 -3.69995 28592 ft 442 kts 167°
2026-05-04 18:03 54.94296 -3.68646 28980 ft 444 kts 167°
2026-05-04 18:03 54.91297 -3.67292 29345 ft 447 kts 167°
2026-05-04 18:03 54.88274 -3.65931 29711 ft 449 kts 167°
2026-05-04 18:04 54.85235 -3.64562 30057 ft 452 kts 167°
2026-05-04 18:04 54.82209 -3.63202 30348 ft 454 kts 167°
2026-05-04 18:04 54.76068 -3.60453 30943 ft 458 kts 167°
2026-05-04 18:05 54.72977 -3.59074 31240 ft 460 kts 167°
2026-05-04 18:05 54.69874 -3.57688 31542 ft 461 kts 167°
2026-05-04 18:05 54.66769 -3.56300 31957 ft 460 kts 167°
2026-05-04 18:05 54.63674 -3.54923 32380 ft 458 kts 167°
2026-05-04 18:06 54.57503 -3.52187 33198 ft 456 kts 166°
2026-05-04 18:06 54.54429 -3.50832 33590 ft 456 kts 167°
2026-05-04 18:06 54.51355 -3.49477 33987 ft 455 kts 166°
2026-05-04 18:07 54.48290 -3.48127 34344 ft 454 kts 166°
2026-05-04 18:07 54.45228 -3.46780 34665 ft 454 kts 166°
2026-05-04 18:07 54.42161 -3.45428 34960 ft 455 kts 166°
2026-05-04 18:07 54.39100 -3.44083 35042 ft 452 kts 166°
2026-05-04 18:08 54.33039 -3.41432 35060 ft 448 kts 166°
2026-05-04 18:08 54.26993 -3.38800 35061 ft 448 kts 166°
2026-05-04 18:09 54.14951 -3.33557 35064 ft 448 kts 165°
2026-05-04 18:10 54.08918 -3.30945 35058 ft 447 kts 165°
2026-05-04 18:10 54.02885 -3.28345 35064 ft 447 kts 165°
2026-05-04 18:11 53.96854 -3.25754 35071 ft 447 kts 165°
2026-05-04 18:11 53.90825 -3.23178 35073 ft 446 kts 165°
2026-05-04 18:12 53.84806 -3.20605 35077 ft 446 kts 164°
2026-05-04 18:12 53.78794 -3.18035 35082 ft 445 kts 164°
2026-05-04 18:13 53.72788 -3.15476 35080 ft 445 kts 165°
2026-05-04 18:14 53.63790 -3.11666 35077 ft 444 kts 164°
2026-05-04 18:14 53.57790 -3.09141 35077 ft 444 kts 164°
2026-05-04 18:15 53.45794 -3.04091 35059 ft 444 kts 164°
2026-05-04 18:16 53.40812 -3.02009 35055 ft 444 kts 164°
2026-05-04 18:16 53.33836 -2.99110 35056 ft 444 kts 164°
2026-05-04 18:17 53.25837 -2.95793 35060 ft 444 kts 164°
2026-05-04 18:18 53.16874 -2.92082 34503 ft 441 kts 163°
2026-05-04 18:18 53.13905 -2.90854 33772 ft 442 kts 163°
2026-05-04 18:18 53.10898 -2.89614 33010 ft 442 kts 163°
2026-05-04 18:18 53.07901 -2.88685 32448 ft 441 kts 171°
2026-05-04 18:19 53.01798 -2.88783 31356 ft 436 kts 180°
2026-05-04 18:19 52.98758 -2.89053 31074 ft 435 kts 180°
2026-05-04 18:19 52.95765 -2.89311 31050 ft 435 kts 180°
2026-05-04 18:20 52.92743 -2.89566 30791 ft 432 kts 179°
2026-05-04 18:20 52.89753 -2.89827 30252 ft 429 kts 181°
2026-05-04 18:20 52.86792 -2.90456 29652 ft 428 kts 185°
2026-05-04 18:20 52.83859 -2.91152 29097 ft 423 kts 185°
2026-05-04 18:21 52.80960 -2.91840 28572 ft 418 kts 185°
2026-05-04 18:21 52.78076 -2.92522 28046 ft 414 kts 186°
2026-05-04 18:21 52.75270 -2.93180 27538 ft 409 kts 186°
2026-05-04 18:21 52.72481 -2.93832 27044 ft 404 kts 186°
2026-05-04 18:22 52.69676 -2.94257 26537 ft 398 kts 181°
2026-05-04 18:22 52.66922 -2.94476 26038 ft 394 kts 181°
2026-05-04 18:22 52.64205 -2.94696 25562 ft 389 kts 181°
2026-05-04 18:22 52.61534 -2.94921 25092 ft 385 kts 182°
2026-05-04 18:23 52.58865 -2.95147 24639 ft 381 kts 182°
2026-05-04 18:23 52.56252 -2.95367 24194 ft 376 kts 182°
2026-05-04 18:23 52.53646 -2.95586 23738 ft 372 kts 183°
2026-05-04 18:23 52.51066 -2.95802 23239 ft 368 kts 183°
2026-05-04 18:24 52.48522 -2.96009 22731 ft 364 kts 183°
2026-05-04 18:24 52.46006 -2.96210 22237 ft 361 kts 183°
2026-05-04 18:24 52.43506 -2.96409 21756 ft 358 kts 183°
2026-05-04 18:24 52.41022 -2.96611 21283 ft 355 kts 184°
2026-05-04 18:25 52.38566 -2.96816 20815 ft 352 kts 184°
2026-05-04 18:25 52.36127 -2.97020 20357 ft 350 kts 183°
2026-05-04 18:25 52.33705 -2.97220 19909 ft 348 kts 183°
2026-05-04 18:25 52.31301 -2.97413 19461 ft 346 kts 183°
2026-05-04 18:26 52.28912 -2.97602 19020 ft 344 kts 183°
2026-05-04 18:26 52.26519 -2.97790 18589 ft 342 kts 183°
2026-05-04 18:26 52.24165 -2.97978 18138 ft 340 kts 183°
2026-05-04 18:26 52.21799 -2.98170 17659 ft 338 kts 183°
2026-05-04 18:27 52.19455 -2.98362 17194 ft 336 kts 183°
2026-05-04 18:27 52.17121 -2.98556 16743 ft 335 kts 183°
2026-05-04 18:27 52.14803 -2.98750 16308 ft 333 kts 183°
2026-05-04 18:27 52.12497 -2.98939 15881 ft 331 kts 183°
2026-05-04 18:28 52.10200 -2.99125 15464 ft 329 kts 183°
2026-05-04 18:28 52.07921 -2.99312 15062 ft 328 kts 183°
2026-05-04 18:28 52.05640 -2.99500 14654 ft 326 kts 183°
2026-05-04 18:28 52.03378 -2.99685 14267 ft 324 kts 183°
2026-05-04 18:29 52.01129 -2.99865 13881 ft 323 kts 183°
2026-05-04 18:29 51.98892 -3.00042 13458 ft 321 kts 183°
2026-05-04 18:29 51.96661 -3.00189 13037 ft 319 kts 180°
2026-05-04 18:29 51.94493 -2.99805 12634 ft 318 kts 168°
2026-05-04 18:30 51.90338 -2.97483 11788 ft 315 kts 160°
2026-05-04 18:30 51.88288 -2.96241 11376 ft 313 kts 160°
2026-05-04 18:30 51.86249 -2.95047 11065 ft 311 kts 165°
2026-05-04 18:31 51.84115 -2.94632 10838 ft 307 kts 185°
2026-05-04 18:31 51.82061 -2.95470 10424 ft 305 kts 206°
2026-05-04 18:31 51.80354 -2.97462 10014 ft 303 kts 227°
2026-05-04 18:31 51.79241 -3.00263 9819 ft 290 kts 246°
2026-05-04 18:32 51.78477 -3.03219 9300 ft 282 kts 247°
2026-05-04 18:32 51.77734 -3.06127 8662 ft 279 kts 247°
2026-05-04 18:32 51.76998 -3.09005 8034 ft 276 kts 247°
2026-05-04 18:32 51.76270 -3.11848 7393 ft 273 kts 248°
2026-05-04 18:33 51.75553 -3.14642 6814 ft 273 kts 248°
2026-05-04 18:33 51.74811 -3.17491 6443 ft 271 kts 245°
2026-05-04 18:33 51.73754 -3.19968 6046 ft 269 kts 225°
2026-05-04 18:33 51.72265 -3.21702 5623 ft 269 kts 206°
2026-05-04 18:34 51.70477 -3.22537 5187 ft 269 kts 186°
2026-05-04 18:34 51.68634 -3.22337 5002 ft 261 kts 166°
2026-05-04 18:34 51.67020 -3.21274 4999 ft 243 kts 150°
2026-05-04 18:34 51.65592 -3.19972 5008 ft 232 kts 150°
2026-05-04 18:35 51.64193 -3.18704 4959 ft 229 kts 150°
2026-05-04 18:35 51.62809 -3.17456 4666 ft 228 kts 150°
2026-05-04 18:35 51.61428 -3.16213 4329 ft 226 kts 150°
2026-05-04 18:35 51.60061 -3.14981 4110 ft 221 kts 150°
2026-05-04 18:36 51.58740 -3.13789 3980 ft 214 kts 149°
2026-05-04 18:36 51.57460 -3.12637 3854 ft 208 kts 149°
2026-05-04 18:36 51.56215 -3.11516 3720 ft 202 kts 148°
2026-05-04 18:36 51.55005 -3.10423 3597 ft 197 kts 148°
2026-05-04 18:37 51.53821 -3.09354 3453 ft 194 kts 149°
2026-05-04 18:37 51.52656 -3.08306 3336 ft 189 kts 147°
2026-05-04 18:37 51.51535 -3.07299 3224 ft 180 kts 148°
2026-05-04 18:37 51.50465 -3.06339 3107 ft 173 kts 147°
2026-05-04 18:38 51.49433 -3.05412 3024 ft 171 kts 148°
2026-05-04 18:38 51.48401 -3.04485 3005 ft 170 kts 147°
2026-05-04 18:38 51.47372 -3.03560 3006 ft 169 kts 147°
2026-05-04 18:38 51.46347 -3.02638 3010 ft 169 kts 148°
2026-05-04 18:39 51.45321 -3.01716 3005 ft 169 kts 147°
2026-05-04 18:39 51.44294 -3.00796 3005 ft 169 kts 147°
2026-05-04 18:39 51.43265 -2.99876 3020 ft 169 kts 148°
2026-05-04 18:39 51.42238 -2.98956 3006 ft 169 kts 148°
2026-05-04 18:40 51.41210 -2.98035 3010 ft 169 kts 148°
2026-05-04 18:40 51.40183 -2.97114 3008 ft 169 kts 148°
2026-05-04 18:40 51.39156 -2.96195 3008 ft 169 kts 148°
2026-05-04 18:40 51.38224 -2.95086 3013 ft 166 kts 128°
2026-05-04 18:41 51.37637 -2.93535 3007 ft 162 kts 107°
2026-05-04 18:41 51.37470 -2.91767 2899 ft 160 kts 85°
2026-05-04 18:41 51.37541 -2.90018 2730 ft 153 kts 84°
2026-05-04 18:41 51.37608 -2.88399 2533 ft 142 kts 83°
2026-05-04 18:42 51.37670 -2.86870 2354 ft 134 kts 84°
2026-05-04 18:42 51.37730 -2.85392 2178 ft 132 kts 84°
2026-05-04 18:42 51.37789 -2.83932 2001 ft 131 kts 83°
2026-05-04 18:42 51.37848 -2.82476 1826 ft 131 kts 84°
2026-05-04 18:43 51.37908 -2.81034 1643 ft 129 kts 83°
2026-05-04 18:43 51.37968 -2.79601 1440 ft 130 kts 84°
2026-05-04 18:43 51.38019 -2.78166 1285 ft 129 kts 84°
2026-05-04 18:43 51.38070 -2.76741 1101 ft 128 kts 84°
2026-05-04 18:44 51.38132 -2.75321 926 ft 127 kts 85°
2026-05-04 18:44 51.38169 -2.74372 801 ft 127 kts 85°
2026-05-04 18:44 51.38237 -2.72512 619 ft 118 kts 83°
2026-05-04 18:44 51.38286 -2.71448 614 ft 72 kts 86°
2026-05-04 18:45 51.38305 -2.70959 610 ft 14 kts 88°
2026-05-04 18:45 51.38313 -2.70793 616 ft 13 kts 65°
2026-05-04 18:45 51.38397 -2.70729 624 ft 14 kts 19°
2026-05-04 18:45 51.38475 -2.70742 623 ft 5 kts 302°
2026-05-04 18:46 51.38470 -2.70784 621 ft 3 kts 263°
2026-05-04 18:46 51.38476 -2.70824 616 ft 6 kts 301°
2026-05-04 18:46 51.38505 -2.70833 611 ft 4 kts 358°
2026-05-04 18:46 51.38527 -2.70865 622 ft 5 kts 283°
2026-05-04 18:47 51.38525 -2.70909 620 ft 3 kts 267°
2026-05-04 18:47 51.38525 -2.70911 619 ft 0 kts 267°